This demonstration page uses our WeatherBlox Daily Observations layout. Learn more.

Hourly Observations for March 16, 2020

Temp ( °F °C ) Dew Point ( °F °C ) Humidity (%) Winds ( mph kmh ) Pressure ( in mb ) Visibility ( mi km ) Precip ( " mm )
12:15 am 00:15 Clear 32 0 32 0 100 100 W 3 6 30.51 1033 10 16.0934 0 0
12:35 am 00:35 Clear 32 0 32 0 100 100 WNW 3 6 30.51 1033 10 16.0934 0 0
12:55 am 00:55 Clear 32 0 32 0 100 100 NNW 3 6 30.5 1033 10 16.0934 0 0
1:15 am 01:15 Clear 34 1 34 1 100 100 N 5 7 30.5 1033 10 16.0934 0 0
1:35 am 01:35 Clear 34 1 32 0 93 93 N 5 7 30.51 1033 10 16.0934 0 0
1:55 am 01:55 Clear 34 1 34 1 100 100 N 6 9 30.52 1034 10 16.0934 0 0
2:15 am 02:15 Clear 36 2 34 1 93 93 NNE 9 15 30.52 1033 10 16.0934 0 0
2:35 am 02:35 Partly Cloudy 36 2 32 0 87 87 NNE 9 15 30.53 1034 10 16.0934 0 0
2:55 am 02:55 Mostly Cloudy 37 3 30 -1 75 75 NNE 8 13 30.53 1034 10 16.0934 0 0
3:15 am 03:15 Partly Cloudy 37 3 28 -2 70 70 NNE 8 13 30.52 1033 10 16.0934 0 0
3:35 am 03:35 Clear 36 2 28 -2 75 75 NNE 7 11 30.51 1033 10 16.0934 0 0
3:55 am 03:55 Clear 36 2 27 -3 70 70 NNE 9 15 30.51 1033 10 16.0934 0 0
4:15 am 04:15 Clear 36 2 27 -3 70 70 NNE 9 15 30.51 1033 10 16.0934 0 0
4:35 am 04:35 Clear 36 2 25 -4 65 65 NNE 7 11 30.51 1033 10 16.0934 0 0
4:55 am 04:55 Clear 36 2 23 -5 60 60 NNE 7 11 30.5 1033 10 16.0934 0 0
5:15 am 05:15 Clear 36 2 23 -5 60 60 NNE 6 9 30.51 1033 10 16.0934 0 0
5:35 am 05:35 Clear 34 1 23 -5 65 65 NNE 8 13 30.51 1033 10 16.0934 0 0
5:55 am 05:55 Clear 34 1 23 -5 65 65 NNE 8 13 30.51 1033 10 16.0934 0 0
6:15 am 06:15 Clear 34 1 21 -6 60 60 NNE 8 13 30.51 1033 10 16.0934 0 0
6:35 am 06:35 Clear 34 1 21 -6 60 60 NNE 6 9 30.52 1034 10 16.0934 0 0
6:55 am 06:55 Clear 34 1 21 -6 60 60 NNE 7 11 30.53 1034 10 16.0934 0 0
7:15 am 07:15 Clear 34 1 21 -6 60 60 NNE 7 11 30.53 1034 10 16.0934 0 0
7:35 am 07:35 Sunny 32 0 21 -6 64 64 NNE 6 9 30.53 1034 10 16.0934 0 0
7:55 am 07:55 Sunny 34 1 21 -6 60 60 NNE 5 7 30.53 1034 10 16.0934 0 0
8:15 am 08:15 Sunny 34 1 21 -6 60 60 NNE 5 7 30.54 1034 10 16.0934 0 0
8:35 am 08:35 Mostly Cloudy 34 1 21 -6 60 60 NNE 3 6 30.55 1035 10 16.0934 0 0
8:55 am 08:55 Cloudy 36 2 21 -6 56 56 NNE 3 6 30.55 1035 10 16.0934 0 0
9:15 am 09:15 Cloudy 36 2 21 -6 56 56 NE 7 11 30.54 1034 10 16.0934 0 0
9:35 am 09:35 Mostly Cloudy 37 3 23 -5 56 56 NE 7 11 30.55 1034 10 16.0934 0 0
9:55 am 09:55 Partly Cloudy 37 3 23 -5 56 56 NE 5 7 30.57 1035 10 16.0934 0 0
10:15 am 10:15 Sunny 39 4 25 -4 56 56 ESE 5 7 30.57 1035 10 16.0934 0 0
10:35 am 10:35 Sunny 41 5 27 -3 57 57 ESE 8 13 30.56 1035 10 16.0934 0 0
10:55 am 10:55 Sunny 43 6 28 -2 57 57 ESE 5 7 30.55 1035 10 16.0934 0 0
11:15 am 11:15 Sunny 43 6 28 -2 57 57 ESE 5 7 30.54 1034 10 16.0934 0 0
11:35 am 11:35 Sunny 45 7 30 -1 57 57 SSE 5 7 30.53 1034 10 16.0934 0 0
11:55 am 11:55 Sunny 46 8 30 -1 53 53 SSE 5 7 30.52 1034 10 16.0934 0 0
12:15 pm 12:15 Sunny 48 9 32 0 54 54 SE 12 19 30.51 1033 10 16.0934 0 0
12:35 pm 12:35 Sunny 50 10 32 0 50 50 S 14 22 30.5 1033 10 16.0934 0 0
12:55 pm 12:55 Sunny 50 10 32 0 50 50 SE 8 13 30.49 1032 10 16.0934 0 0
1:15 pm 13:15 Partly Cloudy 50 10 32 0 50 50 SE 10 17 30.49 1032 10 16.0934 0 0
1:35 pm 13:35 Partly Cloudy 50 10 32 0 50 50 SE 3 6 30.49 1032 10 16.0934 0 0
1:55 pm 13:55 Partly Cloudy 52 11 32 0 47 47 SE 9 15 30.47 1032 10 16.0934 0 0
2:15 pm 14:15 Sunny 52 11 32 0 47 47 SSE 8 13 30.45 1031 10 16.0934 0 0
2:35 pm 14:35 Partly Cloudy 52 11 32 0 47 47 SE 12 19 30.43 1031 10 16.0934 0 0
2:55 pm 14:55 Mostly Cloudy 52 11 32 0 47 47 SSE 12 19 30.42 1030 10 16.0934 0 0
3:15 pm 15:15 Cloudy 52 11 32 0 47 47 S 8 13 30.42 1030 10 16.0934 0 0
3:35 pm 15:35 Cloudy 52 11 32 0 47 47 SSE 8 13 30.4 1030 10 16.0934 0 0
3:55 pm 15:55 Cloudy 52 11 30 -1 44 44 S 12 19 30.4 1030 10 16.0934 0 0
4:15 pm 16:15 Cloudy 52 11 32 0 47 47 S 7 11 30.39 1029 10 16.0934 0 0
4:35 pm 16:35 Cloudy 52 11 30 -1 44 44 S 10 17 30.38 1029 10 16.0934 0 0
4:55 pm 16:55 Cloudy 52 11 30 -1 44 44 SSW 12 19 30.38 1029 10 16.0934 0 0
5:15 pm 17:15 Cloudy 52 11 30 -1 44 44 S 9 15 30.38 1029 10 16.0934 0 0
5:35 pm 17:35 Cloudy 50 10 30 -1 47 47 S 10 17 30.38 1029 10 16.0934 0 0
5:55 pm 17:55 Cloudy 50 10 30 -1 47 47 SSW 9 15 30.38 1029 10 16.0934 0 0
6:15 pm 18:15 Cloudy 50 10 30 -1 47 47 S 8 13 30.38 1029 10 16.0934 0 0
6:35 pm 18:35 Cloudy 50 10 32 0 50 50 S 8 13 30.38 1029 10 16.0934 0 0
6:55 pm 18:55 Cloudy 50 10 32 0 50 50 S 8 13 30.38 1029 10 16.0934 0 0
7:15 pm 19:15 Cloudy 50 10 32 0 50 50 S 7 11 30.38 1029 10 16.0934 0 0
7:35 pm 19:35 Cloudy 50 10 30 -1 47 47 S 9 15 30.38 1029 10 16.0934 0 0
7:55 pm 19:55 Cloudy 50 10 30 -1 47 47 S 9 15 30.38 1029 10 16.0934 0 0
8:15 pm 20:15 Cloudy 50 10 32 0 50 50 S 9 15 30.37 1028 10 16.0934 0 0
8:35 pm 20:35 Cloudy 50 10 32 0 50 50 S 10 17 30.37 1028 10 16.0934 0 0
8:55 pm 20:55 Cloudy 50 10 32 0 50 50 S 13 20 30.37 1028 10 16.0934 0 0
9:15 pm 21:15 Cloudy 48 9 34 1 58 58 SSE 10 17 30.37 1028 10 16.0934 0 0
9:35 pm 21:35 Cloudy 48 9 36 2 62 62 SSE 9 15 30.37 1028 10 16.0934 0 0
9:55 pm 21:55 Cloudy 46 8 36 2 66 66 SSE 10 17 30.37 1028 10 16.0934 0 0
10:15 pm 22:15 Cloudy 46 8 36 2 66 66 SSE 10 17 30.37 1028 10 16.0934 0 0
10:35 pm 22:35 Cloudy 46 8 37 3 71 71 S 12 19 30.37 1028 10 16.0934 0 0
10:55 pm 22:55 Cloudy 46 8 37 3 71 71 SSE 9 15 30.35 1028 10 16.0934 0 0
11:15 pm 23:15 Cloudy 46 8 36 2 66 66 S 12 19 30.35 1028 10 16.0934 0 0
11:35 pm 23:35 Cloudy 45 7 36 2 71 71 S 10 17 30.34 1027 10 16.0934 0 0
11:55 pm 23:55 Cloudy 45 7 36 2 71 71 S 13 20 30.34 1027 10 16.0934 0 0

Powered by AerisWeather